This is the latest recevied weather packets stored in our database for station/object OK1CBR-13. If no packets are shown the sender has not sent any weather packets the latest 10 day(s).
| Time | Temp. | Humidity | Pressure | Rain* | Wind** | Luminosity | Snow |
|---|---|---|---|---|---|---|---|
| 1777606651 | 5° C | 71% | 1030.1 hPa | - | - | - | - |
| 1777606051 | 5° C | 71% | 1030 hPa | - | - | - | - |
| 1777605451 | 5.56° C | 71% | 1030 hPa | - | - | - | - |
| 1777604851 | 5.56° C | 71% | 1030 hPa | - | - | - | - |
| 1777604251 | 5.56° C | 71% | 1029.9 hPa | - | - | - | - |
| 1777603651 | 5.56° C | 70% | 1030 hPa | - | - | - | - |
| 1777603051 | 6.11° C | 69% | 1030 hPa | - | - | - | - |
| 1777602451 | 6.11° C | 69% | 1030 hPa | - | - | - | - |
| 1777601851 | 6.67° C | 67% | 1030 hPa | - | - | - | - |
| 1777601251 | 6.67° C | 66% | 1030 hPa | - | - | - | - |
| 1777600651 | 6.67° C | 66% | 1029.9 hPa | - | - | - | - |
| 1777600051 | 6.67° C | 66% | 1029.9 hPa | - | - | - | - |
| 1777599452 | 6.67° C | 67% | 1029.9 hPa | - | - | - | - |
| 1777598851 | 6.67° C | 69% | 1029.9 hPa | - | - | - | - |
| 1777598252 | 6.67° C | 70% | 1030 hPa | - | - | - | - |
| 1777597651 | 6.67° C | 70% | 1030 hPa | - | - | - | - |
| 1777597051 | 7.22° C | 69% | 1030 hPa | - | - | - | - |
| 1777596451 | 7.22° C | 68% | 1030 hPa | - | - | - | - |
| 1777595851 | 7.22° C | 66% | 1029.9 hPa | - | - | - | - |
| 1777595251 | 7.22° C | 67% | 1029.9 hPa | - | - | - | - |
| 1777594651 | 7.78° C | 68% | 1029.9 hPa | - | - | - | - |
| 1777594052 | 7.22° C | 68% | 1030 hPa | - | - | - | - |
| 1777593452 | 7.22° C | 67% | 1029.9 hPa | - | - | - | - |
| 1777592851 | 7.22° C | 66% | 1030 hPa | - | - | - | - |
| 1777592251 | 7.22° C | 62% | 1030.2 hPa | - | - | - | - |
* Rain since midnight (hover to see other rain measurements)
** Current wind speed in m/s (hover to see current wind gust speed)